Terug naar catalogus

BEIDOU 5

ActiefNavigatieGEO
NORAD 36828·PAYLOAD·🇨🇳 China

Gelanceerd Jul 31, 2010 vanaf Xichang Satellite Launch Center

Loading…

TLE

VersSource: Space-Track

Epoch: Sep 13, 2026, 16:04 UTC

1 36828U 10036A   26256.66970757 -.00000130  00000-0  00000-0 0  9990
2 36828  54.3037 162.1610 0058541 217.4777 320.7749  1.00289463 58981

Volg BEIDOU 5 in realtime met AllMySat

Download on the App Store